Tracking 29932 objects as of 3-Dec-2024
HD Live streaming from Space Station
objects crossing your sky now

STARLINK-2042

Track STARLINK-2042 now!
10-day predictions
STARLINK-2042 is classified as:


NORAD ID: 47658
Int'l Code: 2021-012AQ
Perigee: 456.6 km
Apogee: 458.1 km
Inclination: 53.0 °
Period: 93.6 minutes
Semi major axis: 6828 km
RCS: Unknown
Launch date: February 16, 2021
Source: United States (US)
Launch site: AIR FORCE EASTERN TEST RANGE (AFETR)
Your satellite tracking list
Your tracking list is empty




NASA's NSSDC Master Catalog

Two Line Element Set (TLE):
1 47658U 21012AQ  24337.91667824  .00503011  00000-0  12167-1 0  9996
2 47658  53.0475 339.8577 0001120  70.9710 173.9626 15.38610383  5777
Source of the keplerian elements: AFSPC